Location: Cartignies
(50.0929°N, 3.8447°E)
Time: 13:34:28
(UTC+00:00)

Resurs 1-3 - Pass Details

Date: 12 January 2026
Orbit: 612 x 615 km, 97.7° (Epoch: 16 February)

Event Time Altitude Azimuth Distance (km) Brightness Sun altitude
Rises 18:21:56 0° 176° (S) 2,874 7.1 -20.9°
Reaches altitude 10° 18:24:09 10° 181° (S) 1,974 6.2 -21.3°
Maximum altitude 18:28:22 56° 260° (W) 739 4.2 -21.9°
Drops below altitude 10° 18:32:38 10° 339° (NNW) 1,990 6.3 -22.6°
Sets 18:34:52 0° 344° (NNW) 2,900 7.1 -23.0°
